Overview Statistics Trail Chart Weather Telemetry Raw packets
 

This is the latest recevied weather packets stored in our database for station/object KD7CIH. If no packets are shown the sender has not sent any weather packets the latest 10 day(s).

<< 92 93 94 95 96 97 98 >>
Time Temp. Humidity Pressure Rain* Wind** Luminosity Snow
1788018367 18.33° C 64% 1016.5 hPa 0 mm - - -
1788018191 18.33° C 65% 1016.5 hPa 0 mm - - -
1788017767 17.78° C 67% 1016.5 hPa 0 mm - - -
1788017464 17.22° C 68% 1016.5 hPa 0 mm - - -
1788017292 17.22° C 68% 1016.8 hPa 0 mm - - -
1788016868 17.22° C 70% 1016.8 hPa 0 mm - - -
1788016692 16.67° C 72% 1016.6 hPa 0 mm - - -
1788016266 16.67° C 73% 1016.8 hPa 0 mm - - -
1788016094 16.67° C 73% 1016.9 hPa 0 mm - - -
1788015665 17.22° C 71% 1017 hPa 0 mm - - -
1788015366 17.22° C 66% 1017 hPa 0 mm - - -
1788015195 16.67° C 67% 1017.1 hPa 0 mm - - -
1788014766 16.67° C 66% 1017 hPa 0 mm - - -
1788014593 16.67° C 68% 1017.1 hPa 0 mm - - -
1788014175 16.67° C 69% 1017.1 hPa 0 mm - - -
1788013865 16.11° C 71% 1017.1 hPa 0 mm - - -
1788013565 15° C 75% 1017.2 hPa 0 mm - - -
1788013265 14.44° C 84% 1017.4 hPa 0 mm - - -
1788012967 14.44° C 85% 1017.4 hPa 0 mm - - -
1788012667 14.44° C 85% 1017.4 hPa 0 mm - - -
1788012366 14.44° C 85% 1017.2 hPa 0 mm - - -
1788012065 13.89° C 85% 1017.4 hPa 0 mm - - -
1788011768 13.89° C 86% 1017.4 hPa 0 mm - - -
1788011594 13.89° C 86% 1017.4 hPa 0 mm - - -
1788011169 13.89° C 86% 1017.1 hPa 0 mm - - -

* Rain latest hour (hover to see other rain measurements)
** Current wind speed in m/s (hover to see current wind gust speed)